2022/01/30 23:24:20+0000,-43.45,-32.04,-34.21,-39.39,-34.48,-48.17
2022/01/30 23:25:12+0000,-43.80,-32.23,-33.52,-37.08,-37.90,-48.05
2022/01/30 23:26:04+0000,-43.32,-32.35,-33.00,-39.57,-28.59,-46.76
2022/01/30 23:26:56+0000,-42.97,-32.05,-34.57,-33.67,-40.34,-46.73
2022/01/30 23:27:48+0000,-42.85,-32.36,-30.51,-47.40,-39.37,-47.35
2022/01/30 23:28:40+0000,-43.52,-31.19,-32.47,-36.94,-47.06,-47.11
2022/01/30 23:29:32+0000,-44.10,-30.60,-33.16,-47.37,-38.90,-48.09
2022/01/30 23:30:25+0000,-43.46,-30.19,-30.35,-34.17,-45.58,-46.02
2022/01/30 23:31:27+0000,-44.13,-31.53,-32.85,-38.90,-37.51,-46.40
2022/01/30 23:32:19+0000,-44.00,-32.82,-32.92,-45.95,-39.01,-45.83
2022/01/30 23:33:11+0000,-41.87,-33.39,-33.58,-35.01,-39.20,-46.39
2022/01/30 23:34:03+0000,-43.09,-30.07,-32.10,-46.65,-37.84,-47.00
2022/01/30 23:34:55+0000,-41.22,-29.53,-33.53,-39.11,-46.15,-47.11
2022/01/30 23:35:47+0000,-41.19,-31.01,-31.33,-45.92,-37.20,-48.12
2022/01/30 23:36:39+0000,-42.15,-31.64,-32.23,-34.92,-46.04,-48.48
2022/01/30 23:37:31+0000,-42.99,-31.75,-32.70,-34.31,-36.65,-47.52
2022/01/30 23:38:23+0000,-41.44,-31.81,1.77,-33.03,-44.80,-47.69
2022/01/30 23:39:16+0000,-42.26,-29.01,-32.07,-36.40,-35.12,-47.61
2022/01/30 23:40:09+0000,-42.00,-32.45,-27.71,-34.16,-46.49,-47.18
2022/01/30 23:41:10+0000,-43.11,-29.53,-30.23,-35.60,-45.31,-48.18
2022/01/30 23:42:02+0000,-42.54,-30.60,-30.43,-46.51,-33.19,-46.83
2022/01/30 23:42:54+0000,-42.68,-30.77,-33.34,-34.68,-46.09,-47.69
2022/01/30 23:43:46+0000,-43.40,-31.13,-34.31,-31.60,-39.14,-46.94
2022/01/30 23:44:38+0000,-42.45,-26.99,-33.30,-34.91,-44.30,-46.61
2022/01/30 23:45:30+0000,-42.07,-29.14,-33.12,-33.81,-38.58,-47.34
2022/01/30 23:46:22+0000,-43.25,-29.15,-33.38,-35.92,-31.93,-47.71
2022/01/30 23:47:14+0000,-42.21,-26.02,-33.60,-35.09,-31.76,-48.54
2022/01/30 23:48:06+0000,-42.18,-31.73,-33.09,-36.63,-38.66,-47.84
2022/01/30 23:48:58+0000,-43.16,-27.67,-33.66,-32.59,-36.46,-47.47
2022/01/30 23:49:52+0000,-44.19,-31.36,-32.67,-38.11,-30.48,-46.24
2022/01/30 23:50:44+0000,-43.81,-28.56,-31.86,-38.09,-28.71,-46.01
2022/01/30 23:51:45+0000,-42.59,-20.98,-32.81,-38.97,-28.91,-46.94
2022/01/30 23:52:37+0000,-42.35,-27.66,-33.12,-36.74,-39.00,-45.55
2022/01/30 23:53:29+0000,-41.77,-22.67,-33.16,-33.73,-36.80,-45.88
2022/01/30 23:54:21+0000,-41.84,-31.75,-30.92,-34.00,-28.24,-47.95
2022/01/30 23:55:13+0000,-41.64,-31.61,-33.25,-39.24,-26.55,-47.68
2022/01/30 23:56:05+0000,-42.70,-32.11,-32.22,-38.67,-36.83,-48.33
2022/01/30 23:56:57+0000,-42.12,-24.61,-34.35,-37.15,-37.11,-46.66
2022/01/30 23:57:49+0000,-42.09,-25.41,-32.67,-41.28,-31.09,-46.82
2022/01/30 23:58:41+0000,-41.74,-31.69,-35.07,-39.62,-31.13,-47.04
2022/01/30 23:59:33+0000,-42.16,-33.34,-32.61,-38.74,-36.79,-46.85
2022/01/31 00:00:26+0000,-41.92,-25.07,-30.71,-33.02,-38.13,-47.19
2022/01/31 00:01:34+0000,-43.19,-29.04,-31.70,-46.83,-34.44,-47.30
2022/01/31 00:02:26+0000,-43.17,-29.36,-34.61,-36.35,-35.78,-46.33
2022/01/31 00:03:18+0000,-42.14,-28.32,-29.55,-46.28,-34.15,-47.19
2022/01/31 00:04:10+0000,-41.79,-28.99,-33.58,-38.09,-46.54,-47.65
2022/01/31 00:05:02+0000,-42.29,-25.09,-29.30,-41.31,-38.47,-46.99
2022/01/31 00:05:54+0000,-41.93,-25.16,-28.28,-36.76,-45.72,-48.18
2022/01/31 00:06:46+0000,-42.42,-29.75,-28.36,-37.29,-33.14,-47.73
2022/01/31 00:07:38+0000,-42.07,-29.10,-33.44,-37.29,-42.80,-47.78
2022/01/31 00:08:30+0000,-41.87,-30.39,-31.22,-36.44,-42.33,-46.43
2022/01/31 00:09:22+0000,-42.53,-30.84,-30.68,-36.65,-41.77,-47.38
2022/01/31 00:10:15+0000,-42.11,-30.50,-31.07,-36.42,-36.31,-47.42
2022/01/31 00:11:19+0000,-43.56,-33.03,-28.47,-39.86,-36.01,-44.57
2022/01/31 00:12:12+0000,-42.96,-28.85,-32.67,-38.69,-37.78,-46.18
2022/01/31 00:13:04+0000,-42.98,-30.15,-30.53,-46.25,-41.92,-45.68
2022/01/31 00:13:56+0000,-43.64,-24.76,-28.03,-31.88,-42.15,-44.99
2022/01/31 00:14:48+0000,-41.29,-30.39,-29.06,-45.64,-36.56,-45.50
2022/01/31 00:15:40+0000,-42.88,-29.46,-25.85,-35.18,-48.19,-46.86
2022/01/31 00:16:32+0000,-41.86,-29.92,-30.34,-30.03,-43.00,-47.12
2022/01/31 00:17:24+0000,-42.07,-26.44,-31.77,-36.26,-44.49,-47.18
2022/01/31 00:18:16+0000,-41.92,-28.60,-32.54,-39.09,-33.35,-46.97
2022/01/31 00:19:08+0000,-41.50,-27.93,-24.20,-38.97,-47.76,-46.54
2022/01/31 00:20:01+0000,-41.40,-26.76,-26.34,-35.19,-40.52,-46.81
2022/01/31 00:21:03+0000,-41.34,-30.65,-31.47,-44.96,-42.80,-46.28
2022/01/31 00:21:55+0000,-41.77,-27.46,-30.67,-37.27,-48.37,-46.44
2022/01/31 00:22:47+0000,-40.63,-30.23,-31.72,-45.16,-35.53,-46.48
2022/01/31 00:23:39+0000,-41.08,-28.53,-31.74,-38.92,-48.09,-46.50
2022/01/31 00:24:31+0000,-41.16,-28.89,-32.02,-34.04,-44.59,-46.31
2022/01/31 00:25:23+0000,-41.68,-27.94,-31.93,-35.12,-39.60,-47.89
2022/01/31 00:26:15+0000,-39.81,-30.12,-33.65,-40.21,-38.53,-46.94
2022/01/31 00:27:07+0000,-41.08,-29.48,-31.96,-38.26,-43.17,-47.24
2022/01/31 00:27:59+0000,-42.46,-27.66,-31.66,-37.29,-44.27,-46.17
2022/01/31 00:28:51+0000,-42.14,-33.55,-32.19,-37.20,-38.46,-46.21
2022/01/31 00:29:45+0000,-41.69,-29.51,-30.41,-38.61,-39.08,-46.21
2022/01/31 00:30:37+0000,-43.58,-32.51,-28.22,-39.73,-41.86,-46.00
2022/01/31 00:31:39+0000,-41.35,-27.15,-29.22,-35.06,-47.01,-44.55
2022/01/31 00:32:31+0000,-42.73,-30.25,-31.78,-39.73,-44.69,-45.16
2022/01/31 00:33:23+0000,-42.49,-28.85,-30.51,-35.46,-37.92,-44.06
2022/01/31 00:34:15+0000,-40.84,-26.58,-32.17,-35.35,-39.88,-45.22
2022/01/31 00:35:07+0000,-40.87,-29.58,-30.41,-35.33,-45.55,-44.45
2022/01/31 00:35:59+0000,-41.05,-26.29,-32.64,-35.01,-46.23,-46.71
2022/01/31 00:36:51+0000,-40.65,-31.63,-30.82,-34.26,-38.09,-46.65
2022/01/31 00:37:43+0000,-41.94,-28.42,-32.75,-38.21,-41.47,-42.98
2022/01/31 00:38:35+0000,-40.99,-32.36,-31.00,-41.31,-46.12,-44.67
2022/01/31 00:39:27+0000,-41.65,-28.55,-31.97,-34.01,-45.34,-46.54
2022/01/31 00:40:20+0000,-41.64,-32.22,-31.92,-29.93,-39.47,-47.15
2022/01/31 00:41:22+0000,-41.36,-28.65,-30.47,-32.07,-38.66,-45.75
2022/01/31 00:42:14+0000,-41.77,-26.18,-28.94,-34.48,-38.70,-47.21
2022/01/31 00:43:06+0000,-41.32,-31.51,-29.77,-36.73,-44.19,-46.16
2022/01/31 00:43:58+0000,-41.88,-27.89,-30.35,-32.49,-46.45,-42.38
2022/01/31 00:44:51+0000,-41.26,-32.24,-30.65,-36.54,-38.42,-46.97
2022/01/31 00:45:43+0000,-41.40,-21.97,-34.35,-39.73,-40.14,-46.53
2022/01/31 00:46:35+0000,-39.95,-31.25,-32.39,-44.43,-42.87,-45.56
2022/01/31 00:47:27+0000,-40.85,-23.63,-34.21,-43.00,-41.98,-46.74
2022/01/31 00:48:19+0000,-42.10,-23.46,-32.25,-46.52,-41.79,-46.85
2022/01/31 00:49:11+0000,-41.98,-26.08,-33.86,-39.73,-43.23,-46.44
2022/01/31 00:50:04+0000,-43.12,-29.97,-27.53,-42.17,-43.69,-45.39
2022/01/31 00:51:06+0000,-42.28,-32.08,-24.37,-40.34,-42.48,-44.78
2022/01/31 00:51:58+0000,-42.36,-25.12,-30.21,-42.40,-46.19,-45.25
2022/01/31 00:52:50+0000,-40.43,-31.92,-30.03,-41.33,-39.42,-45.25
2022/01/31 00:53:42+0000,-40.76,-21.71,-33.71,-40.82,-38.98,-42.87
2022/01/31 00:54:34+0000,-41.18,-28.01,-28.32,-45.89,-43.05,-47.16
2022/01/31 00:55:26+0000,-41.34,-28.38,-34.04,-40.96,-45.22,-47.20
2022/01/31 00:56:18+0000,-42.20,-22.12,-33.61,-46.87,-41.68,-46.78
2022/01/31 00:57:10+0000,-40.99,-25.34,-31.92,-36.79,-47.30,-47.27
2022/01/31 00:58:02+0000,-42.56,-24.13,-31.60,-47.01,-44.37,-46.77
2022/01/31 00:58:54+0000,-41.45,-23.76,-34.52,-38.91,-48.17,-47.54
2022/01/31 00:59:48+0000,-41.45,-26.66,-31.94,-47.73,-43.06,-48.46
2022/01/31 01:00:40+0000,-42.32,-25.60,-29.84,-41.73,-47.15,-47.66
2022/01/31 01:01:42+0000,-42.29,-21.46,-33.30,-39.99,-42.49,-47.42
2022/01/31 01:02:34+0000,-40.48,-22.44,-30.09,-47.42,-42.92,-47.28
2022/01/31 01:03:26+0000,-42.22,-21.91,-31.57,-41.67,-43.97,-47.41
2022/01/31 01:04:18+0000,-41.61,-22.55,-31.66,-47.28,-44.55,-47.37
2022/01/31 01:05:10+0000,-40.72,-24.26,-29.65,-42.79,-47.41,-48.29
2022/01/31 01:06:02+0000,-41.17,-22.96,-32.30,-45.03,-43.78,-47.61
2022/01/31 01:06:54+0000,-42.44,-21.52,-31.74,-45.07,-48.71,-47.76
2022/01/31 01:07:46+0000,-41.75,-23.44,-31.77,-39.75,-42.43,-48.71
2022/01/31 01:08:38+0000,-41.54,-24.12,-32.03,-39.88,-44.39,-48.23
2022/01/31 01:09:30+0000,-44.38,-22.12,-32.98,-43.85,-43.23,-48.23
2022/01/31 01:10:23+0000,-43.14,-23.23,-33.70,-44.61,-42.96,-45.33
2022/01/31 01:11:25+0000,-42.87,-24.08,-30.19,-40.43,-46.69,-45.87
2022/01/31 01:12:17+0000,-42.15,-23.39,-31.12,-44.77,-44.18,-46.00
2022/01/31 01:13:09+0000,-42.57,-22.81,-31.04,-43.01,-46.43,-45.96
2022/01/31 01:14:01+0000,-43.02,-23.37,-30.36,-42.46,-41.90,-45.44
2022/01/31 01:14:53+0000,-41.54,-25.41,-28.82,-39.80,-46.61,-48.02
2022/01/31 01:15:45+0000,-42.61,-19.39,-31.87,-42.16,-42.66,-48.21
2022/01/31 01:16:37+0000,-41.94,-18.93,-30.92,-40.07,-43.79,-47.34
2022/01/31 01:17:30+0000,-41.38,-26.08,-29.96,-39.55,-42.81,-46.97
2022/01/31 01:18:22+0000,-41.62,-33.29,-31.81,-45.37,-40.10,-47.21
2022/01/31 01:19:14+0000,-42.27,-24.58,-31.29,-40.12,-41.85,-48.23
2022/01/31 01:20:07+0000,-41.43,-24.73,-31.80,-42.12,-42.76,-46.97
2022/01/31 01:21:09+0000,-42.79,-25.35,-28.96,-39.48,-46.74,-48.28
2022/01/31 01:22:01+0000,-41.29,-24.96,-29.43,-42.36,-41.93,-47.30
2022/01/31 01:22:53+0000,-42.57,-20.44,-31.81,-41.30,-41.30,-45.78
2022/01/31 01:23:45+0000,-42.31,-21.84,-31.49,-39.61,-42.50,-48.25
2022/01/31 01:24:37+0000,-41.45,-21.73,-25.72,-40.41,-41.98,-47.82
2022/01/31 01:25:29+0000,-42.86,-24.31,-30.92,-45.53,-43.94,-46.46
2022/01/31 01:26:21+0000,-42.36,-32.84,-34.21,-45.86,-42.93,-47.23
2022/01/31 01:27:13+0000,-43.04,-22.65,-29.47,-40.92,-44.85,-47.27
2022/01/31 01:28:05+0000,-43.70,-33.23,-29.68,-43.89,-38.24,-46.28
2022/01/31 01:28:57+0000,-43.74,-22.56,-33.95,-44.19,-40.71,-45.10
2022/01/31 01:29:51+0000,-43.51,-31.36,-34.41,-44.67,-43.57,-46.13
2022/01/31 01:30:43+0000,-43.58,-20.93,-35.92,-44.23,-44.54,-45.44
2022/01/31 01:31:44+0000,-42.21,-20.04,-32.76,-43.51,-45.26,-45.81
2022/01/31 01:32:36+0000,-41.80,-32.02,-28.32,-40.17,-37.97,-46.10
2022/01/31 01:33:28+0000,-41.05,-20.99,-29.01,-45.29,-42.95,-46.74
2022/01/31 01:34:20+0000,-41.87,-29.69,-27.87,-45.41,-43.78,-47.73
2022/01/31 01:35:12+0000,-42.28,-18.65,-32.42,-43.52,-44.26,-47.87
2022/01/31 01:36:05+0000,-41.15,-28.75,-27.98,-43.48,-40.21,-47.99
2022/01/31 01:36:57+0000,-41.68,-23.86,-35.55,-46.99,-45.16,-47.49
2022/01/31 01:37:49+0000,-42.24,-19.30,-29.33,-47.45,-40.37,-47.36
2022/01/31 01:38:41+0000,-43.00,-21.21,-34.02,-45.82,-44.21,-48.77
2022/01/31 01:39:33+0000,-42.28,-22.93,-27.21,-46.43,-46.69,-48.49
2022/01/31 01:40:26+0000,-41.79,-22.76,-34.40,-44.20,-45.88,-47.50
2022/01/31 01:41:28+0000,-41.87,-22.20,-34.10,-46.32,-46.38,-48.22
2022/01/31 01:42:20+0000,-43.26,-27.89,-32.53,-45.12,-43.34,-48.07
2022/01/31 01:43:12+0000,-41.88,-18.76,-34.73,-44.94,-43.54,-47.41
2022/01/31 01:44:04+0000,-43.06,-21.43,-27.33,-47.92,-44.63,-48.30
2022/01/31 01:44:56+0000,-43.58,-20.13,-34.42,-45.05,-46.24,-46.03
2022/01/31 01:45:48+0000,-42.87,-20.58,-26.61,-48.45,-44.52,-46.35
2022/01/31 01:46:40+0000,-41.25,-20.27,-31.54,-43.01,-46.38,-45.97
2022/01/31 01:47:32+0000,-43.41,-22.26,-31.54,-45.51,-44.31,-46.11
2022/01/31 01:48:24+0000,-42.17,-20.47,-27.69,-45.38,-47.18,-46.55
2022/01/31 01:49:16+0000,-43.20,-20.64,-29.92,-47.61,-45.69,-46.18
2022/01/31 01:50:10+0000,-40.56,-23.42,-33.96,-45.48,-47.46,-48.43
2022/01/31 01:51:11+0000,-42.19,-20.42,-33.91,-43.95,-46.29,-49.28
2022/01/31 01:52:03+0000,-41.54,-21.56,-32.91,-48.01,-43.90,-48.46
2022/01/31 01:52:55+0000,-40.86,-23.31,-31.00,-42.70,-46.63,-48.73
2022/01/31 01:53:47+0000,-41.17,-21.00,-31.33,-48.06,-44.86,-48.45
2022/01/31 01:54:39+0000,-40.79,-23.72,-33.52,-44.65,-46.65,-47.89
2022/01/31 01:55:32+0000,-41.07,-18.49,-31.23,-46.48,-46.41,-48.68
2022/01/31 01:56:24+0000,-41.74,-19.25,-32.67,-45.33,-46.28,-48.48
2022/01/31 01:57:16+0000,-42.35,-25.16,-32.03,-46.01,-45.91,-48.55
2022/01/31 01:58:08+0000,-41.06,-25.26,-34.25,-45.90,-43.78,-49.02
2022/01/31 01:59:00+0000,-41.68,-21.82,-31.10,-46.66,-47.20,-48.12
2022/01/31 01:59:54+0000,-42.25,-24.95,-34.08,-47.50,-44.82,-48.97
2022/01/31 02:00:46+0000,-41.69,-19.72,-33.81,-45.07,-45.10,-48.17
2022/01/31 02:01:47+0000,-41.59,-22.58,-33.37,-47.26,-45.21,-49.11
2022/01/31 02:02:39+0000,-40.83,-21.21,-32.81,-43.91,-47.21,-48.65
2022/01/31 02:03:31+0000,-38.81,-23.50,-29.16,-46.21,-46.26,-49.69
2022/01/31 02:04:23+0000,-41.65,-23.36,-33.44,-47.47,-46.03,-48.42
2022/01/31 02:05:16+0000,-43.42,-22.69,-34.04,-47.08,-46.13,-47.31
2022/01/31 02:06:08+0000,-42.50,-24.43,-27.07,-45.61,-47.29,-46.43
2022/01/31 02:07:00+0000,-43.85,-24.15,-26.39,-46.34,-45.34,-46.16
2022/01/31 02:07:52+0000,-43.48,-30.70,-34.21,-46.96,-44.79,-46.16
2022/01/31 02:08:44+0000,-41.80,-24.66,-34.21,-46.98,-44.07,-46.33
2022/01/31 02:09:36+0000,-41.55,-27.31,-29.80,-47.06,-46.58,-47.44
2022/01/31 02:10:29+0000,-41.52,-24.02,-34.50,-45.69,-45.63,-47.98
2022/01/31 02:11:31+0000,-40.91,-24.07,-34.75,-40.12,-46.31,-49.11
2022/01/31 02:12:23+0000,-41.62,-24.52,-33.63,-41.91,-46.89,-48.08
2022/01/31 02:13:15+0000,-42.89,-25.40,-33.96,-46.42,-44.71,-48.12
2022/01/31 02:14:07+0000,-40.80,-26.34,-33.24,-45.22,-46.70,-48.51
2022/01/31 02:14:59+0000,-41.80,-23.01,-33.69,-47.12,-46.68,-48.41
2022/01/31 02:15:51+0000,-41.53,-31.98,-34.16,-45.06,-46.55,-48.90
2022/01/31 02:16:43+0000,-41.25,-22.19,-34.29,-47.61,-45.38,-48.66
2022/01/31 02:17:35+0000,-37.83,-32.23,-33.02,-46.75,-46.60,-48.78
2022/01/31 02:18:27+0000,-40.90,-23.85,-34.78,-46.04,-46.94,-48.90
2022/01/31 02:19:20+0000,-41.54,-32.49,-33.68,-46.50,-46.43,-48.22
2022/01/31 02:20:13+0000,-41.15,-23.07,-33.90,-45.86,-46.56,-48.48
2022/01/31 02:21:15+0000,-43.37,-24.58,-33.68,-46.49,-46.15,-47.22
2022/01/31 02:22:07+0000,-41.17,-24.67,-33.53,-44.69,-46.72,-47.13
2022/01/31 02:22:59+0000,-43.34,-21.94,-33.40,-45.81,-46.50,-46.63
2022/01/31 02:23:51+0000,-44.06,-33.02,-34.53,-44.95,-46.53,-46.26
2022/01/31 02:24:43+0000,-42.09,-23.60,-34.60,-45.25,-47.85,-46.33
2022/01/31 02:25:35+0000,-41.85,-33.73,-33.96,-45.91,-47.19,-46.97
2022/01/31 02:26:27+0000,-42.02,-24.89,-34.79,-45.28,-46.15,-48.70
2022/01/31 02:27:19+0000,-41.91,-27.42,-33.69,-45.62,-47.01,-48.88
2022/01/31 02:28:11+0000,-40.68,-22.77,-34.23,-44.58,-47.38,-47.73
2022/01/31 02:29:03+0000,-41.05,-22.90,-33.62,-45.12,-46.38,-47.69
2022/01/31 02:29:57+0000,-41.46,-23.08,-33.69,-44.80,-46.94,-48.24
2022/01/31 02:30:49+0000,-42.18,-21.61,-35.13,-45.67,-46.25,-49.02
2022/01/31 02:31:51+0000,-40.84,-31.80,-34.75,-44.69,-47.13,-47.77
2022/01/31 02:32:43+0000,-43.06,-20.00,-35.87,-44.77,-46.99,-48.28
2022/01/31 02:33:35+0000,-39.90,-30.98,-33.95,-45.32,-46.11,-47.91
2022/01/31 02:34:27+0000,-41.39,-23.37,-34.37,-44.91,-47.80,-48.52
2022/01/31 02:35:19+0000,-41.82,-23.60,-34.66,-45.48,-48.18,-47.88
2022/01/31 02:36:11+0000,-38.54,-20.53,-35.08,-44.24,-47.33,-48.70
2022/01/31 02:37:03+0000,-42.87,-22.72,-34.89,-45.91,-48.01,-46.14
2022/01/31 02:37:55+0000,-39.78,-20.05,-35.10,-44.71,-46.46,-46.41
2022/01/31 02:38:47+0000,-40.58,-23.59,-34.38,-45.58,-46.34,-46.08
2022/01/31 02:39:41+0000,-41.02,-23.77,-35.26,-45.74,-47.02,-45.35
2022/01/31 02:40:33+0000,-40.91,-18.83,-34.45,-45.89,-46.95,-46.64
2022/01/31 02:41:35+0000,-37.22,-32.38,-33.88,-45.53,-46.55,-45.90
2022/01/31 02:42:27+0000,-35.65,-21.27,-34.55,-45.56,-46.45,-48.35
2022/01/31 02:43:19+0000,-41.80,-21.25,-33.56,-45.05,-47.54,-48.16
2022/01/31 02:44:11+0000,-36.78,-24.28,-33.61,-46.43,-46.99,-48.73
2022/01/31 02:45:03+0000,-38.96,-21.49,-33.17,-46.11,-46.40,-47.50
2022/01/31 02:45:55+0000,-41.06,-18.51,-33.93,-45.83,-45.78,-48.31
2022/01/31 02:46:47+0000,-41.21,-26.21,-34.95,-45.50,-47.25,-49.03
2022/01/31 02:47:39+0000,-41.75,-25.00,-33.57,-44.66,-46.70,-48.23
2022/01/31 02:48:31+0000,-41.30,-23.70,-35.08,-45.21,-47.57,-47.98
2022/01/31 02:49:23+0000,-38.78,-22.42,-32.59,-46.10,-47.04,-49.14
2022/01/31 02:50:17+0000,-41.55,-24.62,-32.24,-46.61,-47.82,-48.85
2022/01/31 02:51:19+0000,-40.71,-25.78,-33.30,-46.45,-46.68,-49.16
2022/01/31 02:52:11+0000,-40.98,-24.72,-36.10,-46.90,-45.92,-48.19
2022/01/31 02:53:03+0000,-41.71,-25.14,-34.56,-46.46,-47.52,-49.60
2022/01/31 02:53:55+0000,-37.71,-25.41,-32.89,-46.52,-48.35,-47.91
2022/01/31 02:54:47+0000,-42.14,-23.45,-35.69,-46.21,-46.99,-46.38
2022/01/31 02:55:39+0000,-42.44,-25.90,-34.36,-47.14,-47.23,-46.65
2022/01/31 02:56:31+0000,-43.62,-26.39,-33.47,-44.73,-47.61,-46.95
2022/01/31 02:57:23+0000,-39.66,-26.91,-32.83,-46.13,-47.97,-47.40
2022/01/31 02:58:15+0000,-42.96,-25.99,-35.04,-46.70,-46.67,-47.54
2022/01/31 02:59:07+0000,-41.76,-26.14,-34.45,-46.31,-48.01,-47.18
2022/01/31 03:00:00+0000,-42.30,-25.91,-34.15,-45.34,-47.28,-48.58
2022/01/31 03:01:04+0000,-40.98,-25.89,-33.67,-46.24,-46.98,-48.68
2022/01/31 03:01:56+0000,-41.25,-28.07,-34.62,-46.04,-47.60,-48.20
2022/01/31 03:02:48+0000,-41.83,-24.64,-34.47,-45.99,-47.35,-47.87
2022/01/31 03:03:40+0000,-41.71,-25.74,-33.85,-45.08,-47.98,-48.71
2022/01/31 03:04:32+0000,-42.32,-27.28,-33.29,-46.90,-47.14,-48.23
2022/01/31 03:05:24+0000,-39.43,-24.13,-33.22,-46.09,-47.94,-49.20
2022/01/31 03:06:16+0000,-40.63,-27.23,-32.65,-47.19,-48.08,-47.59
2022/01/31 03:07:08+0000,-42.14,-28.75,-34.96,-46.68,-48.74,-48.59
2022/01/31 03:08:00+0000,-41.78,-24.56,-34.59,-46.12,-47.06,-48.14
2022/01/31 03:08:52+0000,-37.41,-25.32,-34.27,-46.36,-47.23,-48.29
2022/01/31 03:09:46+0000,-38.37,-23.41,-34.60,-46.93,-46.74,-48.65
2022/01/31 03:10:38+0000,-42.03,-12.52,-34.23,-46.17,-47.56,-48.68
2022/01/31 03:11:40+0000,-41.79,-22.15,-34.85,-47.82,-47.98,-46.49
2022/01/31 03:12:32+0000,-42.25,-23.88,-34.57,-47.11,-47.66,-46.56
2022/01/31 03:13:24+0000,-34.13,-27.64,-34.62,-47.06,-47.90,-45.86
2022/01/31 03:14:16+0000,-34.22,-24.29,-35.27,-47.26,-48.24,-45.93
2022/01/31 03:15:08+0000,-41.37,-24.71,-35.23,-47.79,-47.01,-46.85
2022/01/31 03:16:00+0000,-42.57,-28.27,-34.08,-47.36,-48.16,-46.36
2022/01/31 03:16:52+0000,-41.20,-30.15,-35.08,-48.04,-48.35,-49.08
2022/01/31 03:17:44+0000,-41.60,-24.69,-35.12,-48.37,-48.40,-48.33
2022/01/31 03:18:36+0000,-42.09,-32.23,-33.59,-46.17,-47.64,-48.09
2022/01/31 03:19:28+0000,-42.19,-29.16,-35.44,-46.90,-47.17,-48.45
2022/01/31 03:20:21+0000,-39.38,-31.52,-35.68,5.98,-48.26,-48.36
2022/01/31 03:21:23+0000,-40.25,-28.48,-34.18,-45.94,-48.41,-48.22
2022/01/31 03:22:15+0000,-42.65,-20.94,-34.75,-45.94,-47.64,-47.56
2022/01/31 03:23:07+0000,-42.30,-19.66,-34.90,-44.86,-47.95,-47.72
2022/01/31 03:23:59+0000,-41.42,-27.73,-34.31,-45.69,-47.29,-48.09
2022/01/31 03:24:51+0000,-37.12,-31.75,-34.86,-46.49,-47.32,-48.85
2022/01/31 03:25:43+0000,-41.80,-24.37,-35.30,-43.61,-47.06,-48.10
2022/01/31 03:26:35+0000,-33.99,-31.48,-34.23,-40.80,-47.21,-47.85
2022/01/31 03:27:27+0000,-39.34,-26.60,-35.52,-45.37,-47.74,-47.62
2022/01/31 03:28:20+0000,-42.02,-32.28,-35.50,-46.66,-47.77,-47.12
2022/01/31 03:29:12+0000,-28.90,-25.25,-35.31,-45.36,-47.05,-47.14
2022/01/31 03:30:05+0000,-32.11,-32.27,-36.16,-43.85,-47.73,-46.34
2022/01/31 03:31:06+0000,-38.82,-31.85,-36.02,-45.73,-46.15,-45.68
2022/01/31 03:31:58+0000,-43.06,-26.50,-35.59,-45.65,-47.69,-46.15
2022/01/31 03:32:50+0000,-40.64,-30.22,-34.94,-45.49,-47.61,-48.46
2022/01/31 03:33:42+0000,-36.13,-22.11,-35.44,-43.12,-47.80,-48.20
2022/01/31 03:34:34+0000,-34.94,-31.55,-34.96,-44.58,-47.27,-48.42
2022/01/31 03:35:27+0000,-38.69,-25.15,-36.14,-45.70,-47.19,-47.70
2022/01/31 03:36:19+0000,-38.19,-27.06,-34.50,-45.88,-47.89,-48.04
2022/01/31 03:37:11+0000,-38.85,-26.92,-35.26,-46.37,-45.83,-48.33
2022/01/31 03:38:03+0000,-41.71,-25.80,-35.56,-46.20,-47.51,-49.01
2022/01/31 03:38:55+0000,-41.41,-26.11,-35.15,-46.80,-47.22,-47.45
2022/01/31 03:39:48+0000,-41.06,-26.70,-35.17,-46.95,-46.92,-47.88
2022/01/31 03:40:40+0000,-38.14,-27.98,-34.78,-47.51,-47.53,-49.11
2022/01/31 03:41:42+0000,-39.93,-27.41,-35.34,-47.13,-48.12,-48.55
2022/01/31 03:42:34+0000,-41.25,-25.48,-34.87,4.20,-47.33,-48.16
2022/01/31 03:43:26+0000,-43.00,-27.48,-36.35,-47.01,-47.79,-49.55
2022/01/31 03:44:18+0000,-38.61,-26.68,-35.38,-46.75,-46.35,-48.44
2022/01/31 03:45:10+0000,-38.37,-27.42,9.72,-47.35,-46.85,-46.64
2022/01/31 03:46:02+0000,-33.02,-24.87,-35.84,-47.25,-46.67,-47.10
2022/01/31 03:46:54+0000,-39.10,-28.28,-35.27,-47.94,-45.85,-46.83
2022/01/31 03:47:46+0000,-41.71,-26.18,-33.16,-47.71,-47.01,-46.60
2022/01/31 03:48:38+0000,-39.06,-28.44,-35.47,-48.26,-47.48,-46.78
2022/01/31 03:49:30+0000,-37.07,-26.53,-34.22,-47.61,-47.07,-46.76
2022/01/31 03:50:24+0000,-41.51,-26.60,-34.93,-46.99,-46.58,-48.91
2022/01/31 03:51:25+0000,-43.27,-27.54,-34.96,-47.82,-47.63,-48.39
2022/01/31 03:52:17+0000,-42.16,-27.55,-34.26,-47.29,-47.29,-48.59
2022/01/31 03:53:09+0000,-40.71,-29.32,-34.96,-47.67,-46.30,-48.13
2022/01/31 03:54:01+0000,-42.06,-29.01,-34.31,-48.03,-46.94,-48.36
2022/01/31 03:54:53+0000,-42.20,-27.15,-34.41,-47.26,-46.56,-47.55
2022/01/31 03:55:45+0000,-42.10,-28.09,-35.09,-48.32,-46.99,-48.30
2022/01/31 03:56:37+0000,-40.81,-28.83,-35.38,-47.29,-47.70,-48.61
2022/01/31 03:57:29+0000,-41.99,-29.76,-34.58,-48.21,-47.12,-49.08
2022/01/31 03:58:22+0000,-40.63,-32.32,-34.82,-47.41,-46.98,-48.95
2022/01/31 03:59:14+0000,-41.87,-26.97,-34.69,-48.08,-47.86,-48.74
2022/01/31 04:00:07+0000,-37.07,-27.88,-34.95,-47.66,-46.49,-48.53
2022/01/31 04:01:09+0000,-36.02,-29.27,-34.11,-47.87,-47.52,-48.53
2022/01/31 04:02:01+0000,-40.39,-29.99,-33.92,-48.13,-48.05,-48.04
2022/01/31 04:02:53+0000,-42.34,-28.15,-34.62,-48.04,-46.85,-47.18
2022/01/31 04:03:45+0000,-43.77,-29.47,-35.05,-48.52,-46.69,-46.63
2022/01/31 04:04:37+0000,-35.62,-29.05,-34.44,-48.57,-47.33,-47.31
2022/01/31 04:05:29+0000,-43.27,-29.26,-34.31,-47.92,-46.34,-46.30
2022/01/31 04:06:21+0000,-41.04,-32.92,-34.99,-47.73,-48.32,-46.41
2022/01/31 04:07:13+0000,-41.98,-28.03,-35.18,-48.76,-46.34,-47.14
2022/01/31 04:08:05+0000,-40.74,-33.26,-35.19,-47.98,-48.17,-49.17
2022/01/31 04:08:57+0000,-41.53,-27.65,-35.24,-47.69,-46.99,-48.80
2022/01/31 04:09:50+0000,-41.33,-33.05,-34.58,-47.75,-47.99,-48.54
2022/01/31 04:10:42+0000,-37.99,-27.94,-33.92,-47.67,-48.32,-47.60
2022/01/31 04:11:44+0000,-41.04,-23.87,-34.86,-47.34,-47.68,-48.29
2022/01/31 04:12:36+0000,-37.10,-30.26,-34.54,-48.34,-47.26,-47.74
2022/01/31 04:13:28+0000,-40.95,-25.44,-35.14,-48.23,-47.03,-46.98
2022/01/31 04:14:20+0000,-41.97,-32.19,-34.96,-47.95,-47.69,-47.72
2022/01/31 04:15:12+0000,-35.66,-25.60,-34.16,-48.37,-46.79,-47.94
2022/01/31 04:16:04+0000,-38.83,-32.76,-34.61,-48.53,-46.69,-47.51
2022/01/31 04:16:56+0000,-40.52,-26.44,-35.64,-47.18,-47.41,-47.69
2022/01/31 04:17:48+0000,-38.66,-27.90,-34.94,-47.54,-47.30,-47.91
2022/01/31 04:18:41+0000,-39.71,-25.09,-34.12,-47.20,-47.24,-46.78
2022/01/31 04:19:33+0000,-40.55,-29.64,-34.70,-47.75,-47.39,-46.50
2022/01/31 04:20:26+0000,-37.98,-30.32,-35.37,-47.70,-47.90,-46.78
2022/01/31 04:21:28+0000,-42.13,-29.33,-34.93,-47.53,-47.89,-46.09
2022/01/31 04:22:20+0000,-41.12,-33.10,-35.01,-47.61,-46.88,-46.42
2022/01/31 04:23:12+0000,-38.70,-28.70,-35.11,-46.19,-46.82,-45.77
2022/01/31 04:24:04+0000,-40.44,-29.58,-34.54,-46.72,-47.23,-47.07
2022/01/31 04:24:56+0000,-36.16,-31.12,-34.71,-45.81,-47.10,-47.76
2022/01/31 04:25:48+0000,-39.07,-30.18,-34.95,-46.41,-47.13,-47.99
2022/01/31 04:26:40+0000,-40.76,-29.95,-34.23,-46.10,-47.13,-47.86
2022/01/31 04:27:32+0000,-38.97,-28.00,-33.46,-45.64,-47.28,-47.85
2022/01/31 04:28:24+0000,-39.18,-29.81,-35.33,-44.80,-47.39,-47.26
2022/01/31 04:29:16+0000,-38.63,-29.18,-34.89,-45.60,-47.83,-47.55
2022/01/31 04:30:09+0000,-40.52,-29.82,-35.30,-45.27,-47.30,-47.53
2022/01/31 04:31:11+0000,-41.12,-28.26,-34.68,-45.72,-48.05,-48.00
2022/01/31 04:32:03+0000,-41.44,-30.11,-34.92,-45.68,-47.04,-47.41
2022/01/31 04:32:55+0000,-40.06,-29.24,-35.12,-46.76,-47.21,-48.49
2022/01/31 04:33:47+0000,-38.75,-31.14,-33.94,-47.62,-48.39,-47.47
2022/01/31 04:34:39+0000,-39.84,-30.09,-33.88,-46.80,-47.34,-48.45
2022/01/31 04:35:31+0000,-41.04,-28.57,-35.24,-46.40,-47.63,-48.90
2022/01/31 04:36:23+0000,-40.06,-28.01,-35.37,-47.66,-47.64,-46.99
2022/01/31 04:37:15+0000,-41.87,-30.77,-36.22,-47.96,-47.23,-47.39
2022/01/31 04:38:07+0000,-40.23,-30.86,-35.25,-46.95,-47.19,-46.92
2022/01/31 04:38:59+0000,-43.23,-28.73,-35.67,-46.82,-48.37,-46.81
2022/01/31 04:39:53+0000,-41.03,-29.99,-35.11,-48.87,-47.89,-46.42